This is the latest recevied weather packets stored in our database for station/object N9EA. If no packets are shown the sender has not sent any weather packets the latest 10 day(s).
| Time | Temp. | Humidity | Pressure | Rain* | Wind** | Luminosity | Snow |
|---|---|---|---|---|---|---|---|
| 1777501057 | 14.44° C | 36% | 1015.1 hPa | 0 mm | - | 92 W/m² | - |
| 1777500755 | 15° C | 36% | 1015.1 hPa | 0 mm | - | 88 W/m² | - |
| 1777500452 | 15.56° C | 36% | 1015.1 hPa | 0 mm | - | 88 W/m² | - |
| 1777500147 | 15° C | 37% | 1014.9 hPa | 0 mm | - | 122 W/m² | - |
| 1777499845 | 14.44° C | 38% | 1014.9 hPa | 0 mm | - | 104 W/m² | - |
| 1777499541 | 14.44° C | 37% | 1014.8 hPa | 0 mm | - | 90 W/m² | - |
| 1777499239 | 14.44° C | 37% | 1015 hPa | 0 mm | - | 92 W/m² | - |
| 1777498936 | 14.44° C | 35% | 1015 hPa | 0 mm | - | 116 W/m² | - |
| 1777498632 | 16.67° C | 35% | 1015.1 hPa | 0 mm | - | 97 W/m² | - |
| 1777498328 | 16.11° C | 36% | 1015 hPa | 0 mm | - | 471 W/m² | - |
| 1777498027 | 16.11° C | 36% | 1014.6 hPa | 0 mm | - | 503 W/m² | - |
| 1777497723 | 16.67° C | 33% | 1014.9 hPa | 0 mm | - | 467 W/m² | - |
| 1777497419 | 16.67° C | 36% | 1015 hPa | 0 mm | - | 509 W/m² | - |
| 1777497115 | 16.11° C | 35% | 1015.1 hPa | 0 mm | - | 540 W/m² | - |
| 1777496812 | 17.22° C | 36% | 1015 hPa | 0 mm | - | 510 W/m² | - |
| 1777496509 | 16.11° C | 35% | 1015 hPa | 0 mm | - | 575 W/m² | - |
| 1777496205 | 16.11° C | 36% | 1015 hPa | 0 mm | - | 561 W/m² | - |
| 1777495901 | 16.11° C | 37% | 1015.2 hPa | 0 mm | - | 566 W/m² | - |
| 1777495598 | 16.11° C | 35% | 1015 hPa | 0 mm | - | 520 W/m² | - |
| 1777495294 | 16.67° C | 36% | 1015.3 hPa | 0 mm | - | 570 W/m² | - |
| 1777494992 | 16.11° C | 37% | 1015.2 hPa | 0 mm | - | 488 W/m² | - |
| 1777494689 | 15.56° C | 36% | 1015.3 hPa | 0 mm | - | 636 W/m² | - |
| 1777494386 | 15.56° C | 36% | 1015.4 hPa | 0 mm | - | 564 W/m² | - |
| 1777494082 | 15.56° C | 37% | 1015.3 hPa | 0 mm | - | 154 W/m² | - |
| 1777493780 | 15° C | 38% | 1015.4 hPa | 0 mm | - | 636 W/m² | - |
* Rain latest hour (hover to see other rain measurements)
** Current wind speed in m/s (hover to see current wind gust speed)